Overview Statistics Trail Chart Weather Telemetry Raw packets
 

This is the latest recevied weather packets stored in our database for station/object IU7URP-17. If no packets are shown the sender has not sent any weather packets the latest 10 day(s).

<< 5 6 7 8 9 10 11 >>
Time Temp. Humidity Pressure Rain* Wind** Luminosity Snow
1788424570 30° C 56% 1017.1 hPa - - - -
1788423366 30.56° C 55% 1017 hPa - - - -
1788422162 30° C 56% 1016.9 hPa - - - -
1788420958 29.44° C 61% 1017 hPa - - - -
1788419754 28.33° C 63% 1017.1 hPa - - - -
1788418550 28.89° C 64% 1017 hPa - - - -
1788417346 27.78° C 68% 1016.9 hPa - - - -
1788414938 26.67° C 69% 1017.2 hPa - - - -
1788413734 24.44° C 73% 1017.3 hPa - - - -
1788412530 23.89° C 74% 1017.3 hPa - - - -
1788411326 22.78° C 76% 1017.2 hPa - - - -
1788408917 21.11° C 82% 1017.1 hPa - - - -
1788407713 21.11° C 79% 1017 hPa - - - -
1788406509 21.11° C 78% 1016.9 hPa - - - -
1788405305 21.11° C 77% 1017 hPa - - - -
1788404101 21.67° C 75% 1017.2 hPa - - - -
1788401693 21.67° C 71% 1017.3 hPa - - - -
1788400489 21.67° C 70% 1017.3 hPa - - - -
1788399285 22.22° C 69% 1017.2 hPa - - - -
1788398081 22.22° C 68% 1017.2 hPa - - - -
1788396876 22.78° C 67% 1017.3 hPa - - - -
1788395671 22.78° C 68% 1017.4 hPa - - - -
1788394467 22.78° C 68% 1017.3 hPa - - - -
1788393263 22.22° C 70% 1017.5 hPa - - - -
1788390855 22.78° C 68% 1017.4 hPa - - - -

* Rain since midnight (hover to see other rain measurements)
** Current wind speed in m/s (hover to see current wind gust speed)